KD7MPG-3 Weather Reports


time (UTC)temp
C
wind
direction
speed
KPH
gust
KPH
rain 1hr
cm
rain 24hr
cm
rain mn
cm
humidity
%
barometer
mb
20260905083612 12 90 0.0 0.0 0.00 0.43 0.00 90 1025.1
20260905083110 12 91 0.0 0.0 0.00 0.43 0.00 90 1025.1
20260905082610 12 90 0.0 0.0 0.00 0.46 0.00 90 1025.0
20260905082108 13 90 0.0 0.0 0.00 0.46 0.00 90 1024.9
20260905081606 13 91 0.0 0.0 0.00 0.48 0.00 89 1025.0
20260905081104 13 90 0.0 3.2 0.00 0.48 0.00 89 1025.0
20260905080604 13 92 0.0 3.2 0.00 0.51 0.00 89 1024.8
20260905080104 13 91 0.0 4.8 0.00 0.51 0.00 89 1024.8
20260905075603 13 90 1.6 4.8 0.00 0.51 0.00 89 1024.7
20260905075059 13 90 0.0 3.2 0.00 0.51 0.00 89 1024.7
20260905074558 13 91 0.0 1.6 0.00 0.51 0.00 90 1024.6
20260905074058 13 91 0.0 3.2 0.00 0.51 0.00 90 1024.7
20260905073558 13 90 0.0 3.2 0.00 0.51 0.00 90 1024.7
20260905073058 13 90 0.0 3.2 0.00 0.51 0.00 90 1024.7
20260905072558 13 90 0.0 3.2 0.00 0.51 0.00 90 1024.7
20260905072052 13 91 0.0 4.8 0.00 0.51 0.00 90 1024.7
20260905071552 13 90 0.0 4.8 0.00 0.51 0.00 90 1024.7
20260905071052 13 89 0.0 3.2 0.00 0.51 0.00 90 1024.7
20260905070552 13 89 0.0 1.6 0.00 0.51 0.00 90 1024.7
20260905070052 13 89 0.0 1.6 0.00 0.51 0.00 90 1024.6
20260905065553 13 90 0.0 3.2 0.00 0.51 0.51 90 1024.6
20260905065047 13 89 0.0 4.8 0.00 0.51 0.51 90 1024.6
20260905064546 13 90 0.0 4.8 0.00 0.51 0.51 90 1024.5
20260905064046 13 80 0.0 3.2 0.00 0.51 0.51 89 1024.6
20260905063547 13 81 0.0 3.2 0.00 0.51 0.51 89 1024.5
20260905063046 13 80 1.6 4.8 0.00 0.51 0.51 89 1024.5
20260905062547 13 81 1.6 6.4 0.00 0.51 0.51 89 1024.3
20260905062045 13 77 1.6 6.4 0.00 0.51 0.51 89 1024.4
20260905061542 13 92 1.6 4.8 0.00 0.51 0.51 89 1024.3
20260905061040 13 90 1.6 4.8 0.00 0.51 0.51 89 1024.4
20260905060540 13 91 1.6 4.8 0.00 0.51 0.51 89 1024.3
20260905060040 13 90 1.6 6.4 0.00 0.51 0.51 89 1024.4
20260905055541 13 86 0.0 6.4 0.00 0.51 0.51 89 1024.4
20260905055034 13 87 1.6 4.8 0.00 0.51 0.51 89 1024.4
20260905054533 13 87 1.6 4.8 0.00 0.51 0.51 89 1024.3
20260905054032 13 90 1.6 6.4 0.00 0.51 0.51 90 1024.2
20260905053528 13 85 1.6 6.4 0.00 0.51 0.51 90 1024.3
20260905053028 13 82 1.6 3.2 0.00 0.51 0.51 89 1024.3
20260905052523 13 83 1.6 4.8 0.00 0.51 0.51 90 1024.1
20260905052021 13 82 1.6 4.8 0.00 0.51 0.51 90 1024.1
20260905051519 13 82 1.6 4.8 0.00 0.51 0.51 90 1024.1
20260905051016 13 84 1.6 6.4 0.00 0.51 0.51 90 1024.1
20260905050516 13 83 0.0 4.8 0.00 0.51 0.51 90 1024.1
20260905050011 13 84 0.0 4.8 0.00 0.51 0.51 90 1024.1
20260905045512 13 143 0.0 3.2 0.00 0.51 0.51 90 1024.1
20260905045013 13 143 0.0 3.2 0.00 0.51 0.51 90 1024.1
20260905044512 13 144 0.0 3.2 0.00 0.51 0.51 90 1024.1
20260905044010 13 143 0.0 0.0 0.00 0.51 0.51 90 1024.1
20260905043511 13 143 0.0 1.6 0.00 0.51 0.51 89 1024.0
20260905043006 13 143 0.0 1.6 0.00 0.51 0.51 89 1024.0
20260905042506 13 143 0.0 1.6 0.00 0.51 0.51 89 1024.0
20260905042004 13 143 0.0 4.8 0.00 0.51 0.51 89 1023.9
20260905041504 13 144 0.0 4.8 0.00 0.51 0.51 89 1023.7
20260905041004 13 148 0.0 3.2 0.00 0.51 0.51 89 1023.7
20260905040503 13 147 0.0 6.4 0.00 0.51 0.51 89 1023.6
20260905040003 13 148 0.0 6.4 0.00 0.51 0.51 89 1023.6
20260905035500 13 135 0.0 3.2 0.00 0.51 0.51 89 1023.5
20260905034958 13 136 0.0 3.2 0.00 0.51 0.51 89 1023.5
20260905034458 13 136 0.0 3.2 0.00 0.51 0.51 89 1023.6
20260905033958 14 136 0.0 1.6 0.00 0.51 0.51 89 1023.5
20260905033459 14 136 0.0 3.2 0.00 0.53 0.51 89 1023.4
20260905032954 14 135 0.0 3.2 0.00 0.53 0.51 89 1023.4
20260905032454 14 136 0.0 0.0 0.00 0.53 0.51 88 1023.3
20260905031952 14 135 0.0 0.0 0.00 0.53 0.51 88 1023.3
20260905031451 14 135 0.0 0.0 0.00 0.53 0.51 88 1023.3
20260905030952 14 135 0.0 1.6 0.00 0.53 0.51 88 1023.2
20260905030451 14 135 0.0 3.2 0.00 0.56 0.51 88 1023.3
20260905025950 14 135 0.0 3.2 0.00 0.56 0.51 88 1023.3
20260905025450 15 107 0.0 3.2 0.00 0.56 0.51 88 1023.0
20260905024949 15 107 1.6 11.3 0.00 0.56 0.51 88 1023.0
20260905024450 15 107 3.2 11.3 0.00 0.56 0.51 87 1023.0
20260905023951 15 110 3.2 9.7 0.00 0.58 0.51 87 1023.1
20260905023450 15 96 3.2 9.7 0.00 0.64 0.51 87 1023.1
20260905022951 15 117 3.2 8.0 0.00 0.69 0.51 86 1023.0
20260905022446 15 144 3.2 14.5 0.00 0.71 0.51 86 1023.0
20260905021946 15 123 4.8 14.5 0.00 0.71 0.51 85 1023.0
20260905021446 16 100 3.2 11.3 0.00 0.74 0.51 84 1023.0
20260905020946 16 103 3.2 17.7 0.00 0.74 0.51 83 1023.0
20260905020447 16 115 4.8 17.7 0.00 0.74 0.51 82 1023.0
20260905015943 16 124 4.8 19.3 0.00 0.74 0.51 81 1022.9
20260905015445 16 114 4.8 19.3 0.00 0.74 0.51 80 1023.0
20260905014941 16 101 4.8 17.7 0.00 0.74 0.51 80 1023.0
20260905014440 17 113 6.4 16.1 0.00 0.74 0.51 80 1023.0
20260905013940 17 213 6.4 22.5 0.00 0.74 0.51 81 1023.0
20260905013439 17 135 6.4 22.5 0.00 0.74 0.51 82 1023.0
20260905012941 17 138 6.4 14.5 0.00 0.74 0.51 81 1022.9
20260905012438 17 79 3.2 14.5 0.00 0.74 0.51 79 1022.8
20260905011939 17 105 3.2 11.3 0.00 0.74 0.51 77 1022.7
20260905011437 17 138 3.2 11.3 0.00 0.74 0.51 79 1022.7
20260905010934 18 117 3.2 8.0 0.00 0.74 0.51 82 1022.7
20260905010435 18 105 3.2 8.0 0.00 0.74 0.51 83 1022.7
20260905005933 18 85 3.2 12.9 0.00 0.76 0.51 82 1022.7
20260905005434 18 66 3.2 12.9 0.00 0.76 0.51 81 1022.6
20260905004931 18 82 3.2 9.7 0.00 0.76 0.51 81 1022.6
20260905004433 18 72 3.2 6.4 0.00 0.76 0.51 81 1022.7
20260905003931 18 88 1.6 6.4 0.00 0.76 0.51 79 1022.7
20260905003432 18 151 3.2 11.3 0.00 0.76 0.51 77 1022.5
20260905002932 18 161 3.2 11.3 0.00 0.76 0.51 76 1022.4
20260905002427 18 195 4.8 11.3 0.00 0.76 0.51 78 1022.4
20260905001921 18 94 4.8 11.3 0.00 0.76 0.51 80 1022.4
20260905001423 18 74 3.2 11.3 0.00 0.76 0.51 81 1022.4
20260905000922 18 86 1.6 6.4 0.00 0.79 0.51 80 1022.4
20260905000421 18 97 1.6 6.4 0.00 0.84 0.51 80 1022.3
20260904235921 18 62 1.6 9.7 0.00 0.86 0.51 79 1022.3
20260904235423 18 117 1.6 9.7 0.00 0.89 0.51 77 1022.2
20260904234917 18 104 1.6 9.7 0.00 0.91 0.51 76 1022.1
20260904234417 18 138 1.6 6.4 0.00 0.91 0.51 78 1022.1
20260904233919 18 140 0.0 4.8 0.03 0.91 0.51 78 1022.1
20260904233417 18 186 3.2 12.9 0.03 0.91 0.51 76 1022.0
20260904232918 18 186 4.8 12.9 0.03 0.91 0.51 78 1022.1
20260904232419 18 154 3.2 12.9 0.03 0.91 0.51 78 1021.9
20260904231913 18 279 1.6 8.0 0.03 0.91 0.51 79 1022.0
20260904231413 18 79 1.6 8.0 0.03 0.91 0.51 79 1021.8
20260904230915 18 225 0.0 4.8 0.03 0.91 0.51 82 1021.9
20260904230414 18 106 0.0 4.8 0.03 0.91 0.51 82 1021.8
20260904225915 18 106 0.0 4.8 0.03 0.94 0.51 83 1021.8
20260904225414 17 109 1.6 4.8 0.05 0.97 0.51 85 1021.8
20260904224909 17 162 1.6 4.8 0.05 0.99 0.51 86 1021.8
20260904224409 17 176 1.6 3.2 0.08 0.99 0.51 86 1021.9
20260904223906 16 180 0.0 6.4 0.05 0.99 0.48 88 1021.8
20260904223405 16 179 1.6 6.4 0.05 0.99 0.48 87 1021.8
20260904222907 16 180 0.0 4.8 0.08 0.99 0.48 88 1021.9
20260904222405 16 180 0.0 4.8 0.08 0.99 0.48 88 1021.9
20260904221905 16 180 0.0 3.2 0.08 0.99 0.48 88 1021.8
20260904221405 16 181 0.0 3.2 0.08 0.99 0.48 88 1021.8
20260904220906 16 182 1.6 4.8 0.08 0.99 0.48 88 1021.8
20260904220359 15 182 1.6 4.8 0.08 0.99 0.48 88 1021.8
20260904215859 15 182 1.6 4.8 0.08 1.02 0.48 88 1021.9
20260904215359 15 184 1.6 4.8 0.05 0.99 0.46 88 1021.8
20260904214859 15 191 1.6 3.2 0.05 1.04 0.46 88 1021.8
20260904214359 15 191 0.0 1.6 0.03 1.07 0.46 88 1021.7
20260904213900 15 191 0.0 4.8 0.03 1.12 0.43 87 1021.8
20260904213357 15 192 0.0 4.8 0.03 1.14 0.43 87 1021.8
20260904212855 15 192 1.6 6.4 0.00 1.22 0.41 87 1021.8
20260904212353 15 192 3.2 9.7 0.00 1.27 0.41 86 1021.9
20260904211853 16 239 3.2 11.3 0.00 1.30 0.41 86 1021.8
20260904211353 16 205 4.8 11.3 0.00 1.30 0.41 84 1021.8
20260904210854 17 233 6.4 20.9 0.00 1.32 0.41 82 1021.7
20260904210351 18 192 6.4 20.9 0.00 1.32 0.41 79 1021.6
20260904205851 18 195 4.8 12.9 0.00 1.32 0.41 76 1021.6
20260904205352 18 189 3.2 12.9 0.00 1.32 0.41 75 1021.4
20260904204849 18 188 3.2 9.7 0.00 1.32 0.41 76 1021.3
20260904204347 19 171 3.2 9.7 0.03 1.32 0.41 74 1021.2
20260904203848 19 187 3.2 12.9 0.03 1.32 0.41 76 1021.4
20260904203342 19 154 3.2 12.9 0.03 1.32 0.41 74 1021.2
20260904202841 19 126 3.2 11.3 0.03 1.32 0.41 76 1021.2
20260904202341 19 135 3.2 11.3 0.03 1.32 0.41 77 1021.2
20260904201842 19 146 3.2 11.3 0.03 1.32 0.41 76 1021.2
20260904201341 18 149 3.2 9.7 0.03 1.32 0.41 81 1021.2
20260904200842 18 98 1.6 9.7 0.03 1.32 0.41 82 1021.2
20260904200335 18 158 3.2 14.5 0.03 1.32 0.41 82 1021.1
20260904195835 17 158 3.2 14.5 0.03 1.32 0.41 81 1021.2
20260904195335 17 135 1.6 8.0 0.03 1.32 0.41 83 1021.2
20260904194841 17 132 1.6 6.4 0.03 1.32 0.41 85 1021.4
20260904194335 17 109 3.2 6.4 0.00 1.30 0.38 83 1021.4
20260904193836 17 109 3.2 6.4 0.00 1.30 0.38 86 1021.5
20260904193332 17 109 1.6 6.4 0.00 1.30 0.38 87 1021.6
20260904192831 17 113 1.6 4.8 0.00 1.30 0.38 86 1021.6
20260904192331 16 98 1.6 4.8 0.00 1.30 0.38 86 1021.6
20260904191831 16 98 1.6 4.8 0.00 1.30 0.38 87 1021.6
20260904191329 16 103 0.0 4.8 0.00 1.30 0.38 87 1021.8
20260904190828 16 105 1.6 6.4 0.00 1.30 0.38 86 1021.7
20260904190326 16 105 1.6 6.4 0.00 1.30 0.38 86 1021.7
20260904185825 16 143 1.6 6.4 0.00 1.30 0.38 85 1021.8
20260904185323 16 126 3.2 16.1 0.00 1.30 0.38 85 1021.9
20260904184823 16 121 1.6 16.1 0.00 1.30 0.38 84 1021.9
20260904184323 16 99 0.0 4.8 0.00 1.30 0.38 86 1021.8
20260904183823 16 91 1.6 4.8 0.00 1.30 0.38 86 1021.6
20260904183322 16 94 1.6 6.4 0.00 1.30 0.38 86 1021.5
20260904182821 16 82 1.6 6.4 0.00 1.30 0.38 87 1021.4
20260904182322 16 70 1.6 4.8 0.00 1.30 0.38 86 1021.5
20260904181818 16 96 1.6 4.8 0.00 1.30 0.38 87 1021.4
20260904181317 16 69 1.6 4.8 0.00 1.30 0.38 86 1021.5
20260904180817 16 65 1.6 4.8 0.00 1.30 0.38 87 1021.4
20260904180311 16 49 0.0 4.8 0.00 1.30 0.38 87 1021.4
20260904175811 16 13 1.6 4.8 0.00 1.30 0.38 86 1021.3
20260904175311 15 12 1.6 4.8 0.00 1.30 0.38 87 1021.4
20260904174812 15 347 0.0 3.2 0.00 1.30 0.38 87 1021.4
20260904174310 15 69 0.0 3.2 0.00 1.30 0.38 87 1021.3
20260904173812 15 77 0.0 1.6 0.00 1.30 0.38 88 1021.3
20260904173309 15 76 0.0 1.6 0.00 1.32 0.38 88 1021.2
20260904172809 15 76 1.6 4.8 0.00 1.32 0.38 88 1021.0
20260904172308 15 77 1.6 4.8 0.00 1.32 0.38 88 1021.0
20260904171809 15 286 0.0 3.2 0.00 1.35 0.38 89 1020.9
20260904171308 15 286 0.0 3.2 0.00 1.37 0.38 88 1021.0
20260904170806 15 286 1.6 4.8 0.00 1.40 0.38 88 1020.9
20260904170308 15 286 1.6 4.8 0.00 1.42 0.38 89 1020.8
20260904165801 15 46 0.0 3.2 0.00 1.45 0.38 89 1020.8
20260904165305 14 47 0.0 4.8 0.00 1.45 0.38 90 1020.7
20260904164800 14 72 0.0 4.8 0.00 1.47 0.38 90 1020.9
20260904164301 14 73 0.0 4.8 0.00 1.47 0.38 90 1020.8
20260904163801 14 316 1.6 4.8 0.00 1.47 0.38 90 1020.6
20260904163301 14 316 1.6 4.8 0.00 1.47 0.38 91 1020.7
20260904162756 14 24 0.0 4.8 0.00 1.47 0.38 91 1020.6
20260904162254 13 23 0.0 4.8 0.00 1.47 0.38 90 1020.6
20260904161752 13 54 1.6 4.8 0.00 1.47 0.38 91 1020.6
20260904161253 13 65 1.6 4.8 0.00 1.47 0.38 92 1020.7
20260904160752 13 59 0.0 4.8 0.00 1.47 0.38 92 1020.7
20260904160254 13 60 0.0 4.8 0.00 1.47 0.38 92 1020.7
20260904155751 13 60 0.0 4.8 0.00 1.47 0.38 92 1020.7
20260904155252 13 61 0.0 4.8 0.03 1.47 0.38 92 1020.6
20260904154751 13 60 0.0 4.8 0.03 1.47 0.38 92 1020.5
20260904154250 13 59 0.0 4.8 0.05 1.47 0.38 92 1020.5
20260904153751 13 57 0.0 4.8 0.05 1.47 0.38 92 1020.5
20260904153252 13 58 0.0 4.8 0.05 1.47 0.38 92 1020.4
20260904152751 12 57 0.0 4.8 0.05 1.47 0.38 92 1020.4
20260904152250 12 344 0.0 3.2 0.05 1.47 0.38 92 1020.3
20260904151752 12 343 0.0 3.2 0.05 1.47 0.38 92 1020.4
20260904151250 12 344 0.0 3.2 0.05 1.47 0.38 92 1020.4
20260904150752 12 0 0.0 3.2 0.05 1.47 0.38 92 1020.3
20260904150250 12 344 0.0 3.2 0.05 1.47 0.38 92 1020.2
20260904145750 12 344 0.0 3.2 0.08 1.47 0.38 92 1020.2
20260904145250 12 344 0.0 1.6 0.05 1.45 0.36 92 1020.2
20260904144752 12 342 0.0 1.6 0.05 1.45 0.36 92 1020.3
20260904144247 12 342 0.0 3.2 0.03 1.42 0.33 92 1020.2
20260904143746 12 342 1.6 4.8 0.05 1.42 0.33 92 1020.1
20260904143247 12 15 1.6 4.8 0.05 1.42 0.33 92 1020.0
20260904142746 12 34 0.0 3.2 0.05 1.42 0.33 92 1019.9
20260904142247 12 38 0.0 1.6 0.05 1.42 0.33 92 1020.1
20260904141746 12 38 0.0 1.6 0.05 1.42 0.33 92 1020.0
20260904141243 12 38 0.0 1.6 0.05 1.42 0.33 92 1019.9
20260904140742 12 38 0.0 1.6 0.05 1.42 0.33 92 1019.8
20260904140243 12 38 0.0 4.8 0.05 1.42 0.33 92 1019.8
20260904135742 12 38 0.0 4.8 0.03 1.42 0.30 92 1019.6
20260904135242 12 40 0.0 1.6 0.03 1.45 0.30 92 1019.6
20260904134742 12 41 0.0 1.6 0.03 1.47 0.30 92 1019.6
20260904134238 12 40 0.0 1.6 0.03 1.52 0.30 92 1019.5
20260904133738 12 41 0.0 1.6 0.00 1.52 0.28 92 1019.5
20260904133238 12 41 0.0 3.2 0.00 1.52 0.28 92 1019.4
20260904132738 12 40 0.0 3.2 0.00 1.55 0.28 92 1019.3
20260904132238 12 40 0.0 1.6 0.00 1.60 0.28 92 1019.3
20260904131738 12 40 0.0 1.6 0.00 1.70 0.28 92 1019.3
20260904131233 12 41 0.0 1.6 0.00 1.75 0.28 92 1019.2
20260904130732 12 40 0.0 3.2 0.00 1.78 0.28 92 1019.2
20260904130233 12 40 0.0 3.2 0.00 1.78 0.28 92 1019.2
20260904125731 12 40 0.0 0.0 0.00 1.78 0.28 92 1019.2
20260904125231 12 40 0.0 0.0 0.00 1.80 0.28 92 1019.1
20260904124731 12 40 0.0 0.0 0.00 1.80 0.28 92 1019.2
20260904124225 12 40 0.0 1.6 0.00 1.80 0.28 92 1019.2
20260904123724 12 40 0.0 3.2 0.00 1.80 0.28 92 1019.1
20260904123220 12 40 0.0 3.2 0.00 1.80 0.28 92 1019.1
20260904122718 12 40 0.0 3.2 0.00 1.80 0.28 92 1019.2
20260904122218 12 40 0.0 1.6 0.00 1.80 0.28 92 1019.1
20260904121714 12 41 0.0 1.6 0.00 1.80 0.28 92 1019.0
20260904121213 12 40 0.0 1.6 0.00 1.80 0.28 92 1019.0
20260904120712 12 42 0.0 1.6 0.00 1.80 0.28 92 1019.1
20260904120212 12 41 0.0 1.6 0.00 1.80 0.28 92 1019.0
20260904115712 12 42 0.0 1.6 0.00 1.80 0.28 92 1019.0
20260904115213 12 41 0.0 1.6 0.00 1.80 0.28 92 1018.9
20260904114708 12 42 0.0 1.6 0.00 1.80 0.28 92 1018.8
20260904114209 12 42 0.0 1.6 0.00 1.80 0.28 92 1018.8
20260904113708 12 42 0.0 0.0 0.00 1.80 0.28 92 1018.7
20260904113208 12 41 0.0 0.0 0.00 1.80 0.28 92 1018.8
20260904112706 12 41 0.0 0.0 0.03 1.80 0.28 92 1018.7
20260904112206 12 42 0.0 0.0 0.03 1.80 0.28 92 1018.5
20260904111700 12 42 0.0 0.0 0.03 1.80 0.28 92 1018.5
20260904111158 12 42 0.0 1.6 0.03 1.80 0.28 92 1018.4
20260904110656 12 42 0.0 1.6 0.05 1.80 0.28 92 1018.5
20260904110155 12 42 0.0 1.6 0.05 1.80 0.28 92 1018.5
20260904105654 12 42 0.0 1.6 0.05 1.80 0.28 92 1018.4
20260904105149 12 42 0.0 4.8 0.08 1.80 0.28 92 1018.3
20260904104649 12 41 1.6 6.4 0.08 1.80 0.28 92 1018.3
20260904104148 12 42 1.6 6.4 0.08 1.80 0.28 92 1018.1
20260904103648 12 82 0.0 4.8 0.08 1.80 0.28 92 1018.2
20260904103148 12 104 0.0 1.6 0.08 1.80 0.28 92 1018.2
20260904102648 12 106 0.0 1.6 0.05 1.78 0.28 92 1018.2
20260904102146 12 105 0.0 0.0 0.05 1.78 0.25 92 1018.3
20260904101644 12 105 0.0 0.0 0.05 1.78 0.25 92 1018.3
20260904101145 12 105 0.0 1.6 0.05 1.78 0.25 92 1018.3
20260904100644 12 105 0.0 3.2 0.05 1.75 0.23 92 1018.2
20260904100142 12 105 0.0 3.2 0.05 1.75 0.23 92 1018.3
20260904095642 12 105 0.0 0.0 0.05 1.75 0.23 92 1018.3
20260904095136 12 105 0.0 1.6 0.05 1.73 0.20 92 1018.4
20260904094635 12 105 0.0 1.6 0.08 1.73 0.20 92 1018.3
20260904094136 12 106 0.0 4.8 0.10 1.73 0.20 92 1018.3
20260904093636 12 105 0.0 4.8 0.13 1.73 0.20 92 1018.2
20260904093135 12 75 0.0 3.2 0.13 1.73 0.20 92 1018.3
20260904092637 12 76 0.0 3.2 0.15 1.73 0.20 92 1018.2
20260904092135 12 76 0.0 3.2 0.15 1.73 0.20 92 1018.3
20260904091632 12 76 0.0 4.8 0.18 1.73 0.20 92 1018.3
20260904091133 12 76 1.6 4.8 0.18 1.73 0.20 92 1018.3
20260904090633 12 76 1.6 4.8 0.18 1.70 0.18 92 1018.4
20260904090130 12 101 1.6 4.8 0.18 1.70 0.18 92 1018.5
20260904085630 12 102 0.0 4.8 0.18 1.70 0.18 92 1018.4
20260904085124 12 98 0.0 4.8 0.15 1.68 0.15 92 1018.4
20260904084624 12 92 0.0 4.8 0.13 1.65 0.13 92 1018.4
20260904084123 12 93 0.0 3.2 0.10 1.63 0.10 92 1018.4